Regional Weather Roundup
Issued by NWS

Home | Current Version | Previous Version | Text Only | Print | Product List | Glossary Off
Versions: 1 2 3 4 5 6 7 8 9 10 11 12 13 14 15 16 17 18 19 20 21 22 23 24 25 26 27 28 29 30 31 32 33 34 35 36 37 38 39 40 41 42 43 44 45 46 47 48 49 50

598
ASUS43 KFSD 192302
RWRSD

WEATHER ROUNDUP FOR SOUTH DAKOTA
NATIONAL WEATHER SERVICE SIOUX FALLS SD
500 PM CST MON FEB 19 2018

NOTE: "FAIR" INDICATES FEW OR NO CLOUDS BELOW 12,000 FEET WITH NO
SIGNIFICANT WEATHER AND/OR OBSTRUCTIONS TO VISIBILITY.


SDZ001>005-009-010-012>017-200000-
NORTHWEST AND NORTH CENTRAL SOUTH DAKOTA

CITY           SKY/WX    TMP DP  RH WIND       PRES   REMARKS
BUFFALO          N/A      2  -4  76 NE13      29.92S WCI -15
FAITH            N/A      2  -2  83 N18       29.99F WCI -19
MOBRIDGE       LGT SNOW   8   1  73 N14       30.05R VSB 3/4 WCI  -8
$$

SDZ012>016-024>037-041>051-057-063-072>074-200000-
SOUTHWEST AND SOUTH CENTRAL SOUTH DAKOTA

CITY           SKY/WX    TMP DP  RH WIND       PRES   REMARKS
RAPID CTY ARPT SNOW       0  -5  79 N14       29.92F VSB 1/2 WCI -19
PIERRE         LGT SNOW   8   4  83 N17       30.01R FOG     WCI -10
CUSTER         LGT SNOW  -1  -7  75 NE6       29.63F WCI -13
ELLSWORTH AFB  PTSUNNY    0  -4  82 N12       29.92  BLWGSNOWWCI -17
PHILIP         LGT SNOW   5   1  83 N17       30.00F FOG     WCI -14
PINE RIDGE     LGT SNOW   3  -2  79 NE10      29.86S WCI -12
SPEARFISH        N/A     -2  -8  78 NE8       29.88R HAZE    WCI -17
WINNER         LGT SNOW  10   5  80 N14       29.94S WCI  -6
$$

SDZ004>011-016>023-039-040-200000-
NORTHEAST SOUTH DAKOTA

CITY           SKY/WX    TMP DP  RH WIND       PRES   REMARKS
ABERDEEN       LGT SNOW   9   3  77 N20G29    30.04F WCI -10
WATERTOWN      CLOUDY     8   5  87 N24       29.91S FOG     WCI -13
BROOKINGS      LGT SNOW  12   8  84 N17G24    29.89  FOG     WCI  -5
SISSETON         N/A      9   5  84 N22       30.04S WCI -11
$$

SDZ017-020-022-023-036>040-048>070-200000-
SOUTHEAST SOUTH DAKOTA

CITY           SKY/WX    TMP DP  RH WIND       PRES   REMARKS
SIOUX FALLS    LGT SNOW  15  12  88 N10       29.87S FOG     WCI   2
HURON          LGT SNOW  11   7  84 N18       29.97R FOG     WCI  -7
CHAMBERLAIN    LGT SNOW  12   8  85 NW16G22   29.96R WCI  -4
MITCHELL       LGT SNOW  14  10  84 N21       29.95R FOG     WCI  -4
YANKTON        LGT SNOW  17  14  88 N13       29.90R FOG     WCI   4
$$

ABBREVIATIONS USED IN REMARKS
   TC - TEMPERATURE IN CELSIUS
  WCI - WIND CHILL INDEX
   HX - HEAT INDEX
  VSB - VISIBILITY





USA.gov is the U.S. government's official web portal to all federal, state and local government web resources and services.